This demonstration page uses our WeatherBlox Daily Observations layout. Learn more.

Hourly Observations for March 11, 2016

Temp ( °F °C ) Dew Point ( °F °C ) Humidity (%) Winds ( mph kmh ) Pressure ( in mb ) Visibility ( mi km ) Precip ( " mm )
12:15 am 00:15 Partly Cloudy 68 20 59 15 73 73 W 3 6 29.97 1015 10 16.09344 0 0
12:35 am 00:35 Clear 66 19 57 14 73 73 W 5 7 29.97 1015 10 16.09344 0 0
12:55 am 00:55 Clear 68 20 57 14 69 69 WSW 3 6 29.94 1014 10 16.09344 0 0
1:15 am 01:15 Clear 68 20 57 14 69 69 Calm 29.94 1014 10 16.09344 0 0
1:35 am 01:35 Clear 66 19 57 14 73 73 W 3 6 29.94 1014 10 16.09344 0 0
1:55 am 01:55 Clear 64 18 57 14 78 78 Calm 29.97 1015 10 16.09344 0 0
2:15 am 02:15 Clear 66 19 57 14 73 73 Calm 29.97 1015 10 16.09344 0 0
2:35 am 02:35 Mostly Cloudy 64 18 57 14 78 78 Calm 29.97 1015 10 16.09344 0 0
2:55 am 02:55 Cloudy 66 19 55 13 68 68 Calm 29.97 1015 10 16.09344 0 0
3:15 am 03:15 Cloudy 64 18 57 14 78 78 Calm 29.97 1015 10 16.09344 0 0
3:35 am 03:35 Cloudy 66 19 59 15 78 78 WNW 9 15 29.97 1015 10 16.09344 0 0
3:55 am 03:55 Cloudy 68 20 59 15 73 73 WNW 9 15 29.97 1015 10 16.09344 0 0
4:15 am 04:15 Cloudy 68 20 59 15 73 73 WNW 6 9 29.97 1015 10 16.09344 0 0
4:35 am 04:35 Cloudy 68 20 59 15 73 73 NW 10 17 30 1016 10 16.09344 0 0
4:55 am 04:55 Cloudy 63 17 55 13 77 77 N 17 28 30.03 1017 10 16.09344 0 0
5:15 am 05:15 Cloudy 63 17 54 12 73 73 N 16 26 30.06 1018 10 16.09344 0 0
5:35 am 05:35 Cloudy 61 16 54 12 77 77 N 16 26 30.06 1018 10 16.09344 0 0
5:55 am 05:55 Cloudy with Light Rain 59 15 54 12 82 82 N 16 26 30.09 1019 10 16.09344 0 0
6:15 am 06:15 Cloudy 59 15 54 12 82 82 N 5 7 30.12 1020 10 16.09344 0 0
6:35 am 06:35 Cloudy 59 15 54 12 82 82 Calm 30.12 1020 10 16.09344 0 0
6:55 am 06:55 Cloudy 59 15 55 13 88 88 Calm 30.12 1020 10 16.09344 0 0
7:15 am 07:15 Cloudy 59 15 55 13 88 88 Calm 30.12 1020 10 16.09344 0 0
7:35 am 07:35 Cloudy 59 15 55 13 88 88 NNW 5 7 30.15 1021 10 16.09344 0 0
7:55 am 07:55 Cloudy 59 15 55 13 88 88 NNW 7 11 30.15 1021 10 16.09344 0 0
8:15 am 08:15 Cloudy 59 15 55 13 88 88 NNW 6 9 30.18 1022 10 16.09344 0 0
8:35 am 08:35 Cloudy 61 16 55 13 83 83 NNW 7 11 30.18 1022 10 16.09344 0 0
8:55 am 08:55 Mostly Cloudy 61 16 55 13 83 83 NW 7 11 30.18 1022 10 16.09344 0 0
9:15 am 09:15 Partly Cloudy 63 17 55 13 77 77 N 8 13 30.18 1022 10 16.09344 0 0
9:35 am 09:35 Partly Cloudy 63 17 55 13 77 77 N 3 6 30.18 1022 10 16.09344 0 0
9:55 am 09:55 Partly Cloudy 63 17 54 12 73 73 N 6 9 30.18 1022 10 16.09344 0 0
10:15 am 10:15 Partly Cloudy 63 17 54 12 73 73 N 15 24 30.18 1022 10 16.09344 0 0
10:35 am 10:35 Partly Cloudy 64 18 54 12 68 68 N 15 24 30.21 1023 10 16.09344 0 0
10:55 am 10:55 Partly Cloudy 64 18 54 12 68 68 N 8 13 30.21 1023 10 16.09344 0 0
11:15 am 11:15 Partly Cloudy 66 19 52 11 60 60 NNW 13 20 30.21 1023 10 16.09344 0 0
11:35 am 11:35 Mostly Cloudy 66 19 52 11 60 60 N 12 19 30.21 1023 10 16.09344 0 0
11:55 am 11:55 Mostly Cloudy 68 20 54 12 60 60 W 3 6 30.21 1023 10 16.09344 0 0
12:15 pm 12:15 Partly Cloudy 68 20 52 11 56 56 NNW 9 15 30.21 1023 10 16.09344 0 0
12:35 pm 12:35 Sunny 70 21 50 10 50 50 NNW 9 15 30.21 1023 10 16.09344 0 0
12:55 pm 12:55 Sunny 70 21 50 10 50 50 NW 10 17 30.21 1023 10 16.09344 0 0
1:15 pm 13:15 Sunny 70 21 50 10 50 50 NNW 13 20 30.21 1023 10 16.09344 0 0
1:35 pm 13:35 Sunny 70 21 48 9 46 46 WNW 12 19 30.21 1023 10 16.09344 0 0
1:55 pm 13:55 Sunny 72 22 46 8 41 41 NNW 14 22 30.21 1023 10 16.09344 0 0
2:15 pm 14:15 Sunny 72 22 45 7 38 38 NNW 9 15 30.21 1023 10 16.09344 0 0
2:35 pm 14:35 Sunny 72 22 45 7 38 38 NNW 6 9 30.21 1023 10 16.09344 0 0
2:55 pm 14:55 Sunny 72 22 45 7 38 38 NNW 10 17 30.21 1023 10 16.09344 0 0
3:15 pm 15:15 Sunny 72 22 43 6 36 36 N 10 17 30.21 1023 10 16.09344 0 0
3:35 pm 15:35 Sunny 72 22 43 6 36 36 NNW 9 15 30.21 1023 10 16.09344 0 0
3:55 pm 15:55 Sunny 72 22 43 6 36 36 NNW 7 11 30.21 1023 10 16.09344 0 0
4:15 pm 16:15 Sunny 72 22 45 7 38 38 N 9 15 30.21 1023 10 16.09344 0 0
4:35 pm 16:35 Sunny 70 21 43 6 38 38 N 8 13 30.24 1024 10 16.09344 0 0
4:55 pm 16:55 Sunny 72 22 45 7 38 38 N 9 15 30.24 1024 10 16.09344 0 0
5:15 pm 17:15 Sunny 70 21 43 6 38 38 NNE 8 13 30.24 1024 10 16.09344 0 0
5:35 pm 17:35 Sunny 70 21 43 6 38 38 N 8 13 30.24 1024 10 16.09344 0 0
5:55 pm 17:55 Sunny 68 20 41 5 38 38 N 5 7 30.27 1025 10 16.09344 0 0
6:15 pm 18:15 Clear 68 20 41 5 38 38 N 3 6 30.27 1025 10 16.09344 0 0
6:35 pm 18:35 Clear 66 19 41 5 40 40 NNE 3 6 30.27 1025 10 16.09344 0 0
6:55 pm 18:55 Clear 64 18 41 5 43 43 Calm 30.27 1025 10 16.09344 0 0
7:15 pm 19:15 Clear 64 18 39 4 40 40 N 3 6 30.3 1026 10 16.09344 0 0
7:35 pm 19:35 Clear 61 16 41 5 48 48 N 3 6 30.3 1026 10 16.09344 0 0
7:55 pm 19:55 Clear 59 15 43 6 55 55 Calm 30.3 1026 10 16.09344 0 0
8:15 pm 20:15 Clear 61 16 41 5 48 48 N 6 9 30.3 1026 10 16.09344 0 0
8:35 pm 20:35 Clear 61 16 39 4 45 45 NNE 5 7 30.3 1026 10 16.09344 0 0
8:55 pm 20:55 Clear 61 16 39 4 45 45 NNE 5 7 30.3 1026 10 16.09344 0 0
9:15 pm 21:15 Clear 59 15 39 4 48 48 NNE 6 9 30.3 1026 10 16.09344 0 0
9:35 pm 21:35 Clear 59 15 39 4 48 48 NNE 5 7 30.3 1026 10 16.09344 0 0
9:55 pm 21:55 Clear 57 14 39 4 51 51 NE 5 7 30.33 1027 10 16.09344 0 0
10:15 pm 22:15 Clear 57 14 39 4 51 51 Calm 30.33 1027 10 16.09344 0 0
10:35 pm 22:35 Clear 54 12 39 4 58 58 Calm 30.36 1028 10 16.09344 0 0
10:55 pm 22:55 Clear 52 11 41 5 67 67 Calm 30.36 1028 10 16.09344 0 0
11:15 pm 23:15 Clear 52 11 41 5 67 67 ENE 3 6 30.36 1028 10 16.09344 0 0
11:35 pm 23:35 Clear 48 9 43 6 82 82 Calm 30.36 1028 10 16.09344 0 0
11:55 pm 23:55 Clear 46 8 43 6 87 87 Calm 30.39 1029 10 16.09344 0 0

Powered by AerisWeather